Weather History for Eelde, Netherlands

Change the Weather History Date:

Friday, June 7, 2013

  Actual Average Record
Temperature  
Mean Temperature 62 °F -  
Max Temperature 72 °F 67 °F 86 °F (1997)
Min Temperature 51 °F 50 °F 37 °F (2006)
Degree Days  
Heating Degree Days 4    
Growing Degree Days 12 (Base 50)    
Moisture  
Dew Point 53 °F    
Average Humidity 78    
Maximum Humidity 100    
Minimum Humidity 51    
Precipitation  
Precipitation 0.00 in 0.09 in - ()
Sea Level Pressure  
Sea Level Pressure 30.18 in    
Wind  
Wind Speed 7 mph ()    
Max Wind Speed 15 mph    
Max Gust Speed -    
Visibility 6.6 miles    
Events      
Averages and records for this station are not official NWS values.
T = Trace of Precipitation, MM = Missing Value Source: Averaged Metar Reports

Daily Weather History Graph

Daily Weather History Graph

Search for Another Location

Airport:

Trip Planner

Search our weather history database for the weather conditions in past years. The results will help you decide how hot, cold, wet, or windy it might be!

Date:

Astronomy

Jun. 07, 2013 Rise Set
Actual Time 5:09 AM CEST 9:56 PM CEST
Civil Twilight 4:18 AM CEST 10:47 PM CEST
Nautical Twilight 2:55 AM CEST 12:10 AM CEST
Astronomical Twilight Sun does not rise Sun does not rise
Moon 4:33 AM CEST (6/7) 8:46 PM CEST (6/7)
Length of Visible Light 18h 28m
Length of Day
16h 47m
Waning Crescent, 1% of the Moon is Illuminated
Jun 7
Waning Crescent
Jun 8
New
Jun 16
First Quarter
Jun 23
Full
Jun 30
Last Quarter

Hourly Weather History & Observations

Time (CEST) Temp. Dew Point Humidity Pressure Visibility Wind Dir Wind Speed Gust Speed Precip Events Conditions
12:25 AM 53.6 °F 51.8 °F 94% 30.18 in 6.2 mi NNE 6.9 mph - N/A   Unknown
12:55 AM 53.6 °F 51.8 °F 94% 30.18 in 6.2 mi NE 6.9 mph - N/A   Unknown
1:25 AM 53.6 °F 50.0 °F 88% 30.18 in 6.2 mi NNE 5.8 mph - N/A   Unknown
1:55 AM 53.6 °F 50.0 °F 88% 30.18 in 6.2 mi NNE 6.9 mph - N/A   Unknown
2:25 AM 51.8 °F 50.0 °F 94% 30.18 in 6.2 mi NNE 4.6 mph - N/A   Unknown
2:55 AM 51.8 °F 50.0 °F 94% 30.18 in 6.2 mi NNE 4.6 mph - N/A   Unknown
3:25 AM 51.8 °F 50.0 °F 94% 30.18 in 6.2 mi North 4.6 mph - N/A   Unknown
3:55 AM 51.8 °F 50.0 °F 94% 30.18 in 6.2 mi North 4.6 mph - N/A   Unknown
4:25 AM 51.8 °F 50.0 °F 94% 30.18 in 5.6 mi North 3.5 mph - N/A   Unknown
4:55 AM 51.8 °F 50.0 °F 94% 30.18 in 5.0 mi NNE 3.5 mph - N/A   Unknown
5:00 AM 52 °F 51 °F 93% 30.20 in 6 mi North 4.5 mph - -   Mist
5:25 AM 51.8 °F 50.0 °F 94% 30.18 in 5.6 mi NNE 4.6 mph - N/A   Unknown
5:55 AM 51.8 °F 51.8 °F 100% 30.18 in 5.0 mi NNE 4.6 mph - N/A   Unknown
6:25 AM 53.6 °F 51.8 °F 94% 30.18 in 5.0 mi NNE 4.6 mph - N/A   Unknown
6:55 AM 53.6 °F 51.8 °F 94% 30.18 in 6.2 mi NNE 4.6 mph - N/A   Unknown
7:25 AM 55.4 °F 53.6 °F 94% 30.18 in 6.2 mi NNE 4.6 mph - N/A   Unknown
7:55 AM 57.2 °F 53.6 °F 88% 30.18 in 6.2 mi NNE 4.6 mph - N/A   Unknown
8:00 AM 58 °F 54 °F 82% 30.20 in 9 mi North 4.5 mph - -   Partly Cloudy
8:25 AM 59.0 °F 53.6 °F 82% 30.18 in 6.2 mi North 6.9 mph - N/A   Unknown
8:55 AM 60.8 °F 55.4 °F 82% 30.18 in 6.2 mi North 6.9 mph - N/A   Unknown
9:25 AM 62.6 °F 55.4 °F 77% 30.18 in 6.2 mi NNE 8.1 mph - N/A   Unknown
9:55 AM 64.4 °F 55.4 °F 73% 30.18 in 6.2 mi NNE 5.8 mph - N/A   Unknown
10:25 AM 66.2 °F 55.4 °F 68% 30.18 in 6.2 mi NNE 8.1 mph - N/A   Unknown
10:55 AM 66.2 °F 57.2 °F 73% 30.18 in 6.2 mi North 9.2 mph - N/A   Unknown
11:00 AM 66 °F 56 °F 62% 30.21 in 12 mi North 11.2 mph - -  
11:25 AM 66.2 °F 55.4 °F 68% 30.18 in 6.2 mi NNE 9.2 mph - N/A   Unknown
11:55 AM 68.0 °F 55.4 °F 64% 30.18 in 6.2 mi NNE 9.2 mph - N/A   Unknown
12:25 PM 69.8 °F 55.4 °F 60% 30.18 in 6.2 mi North 10.4 mph - N/A   Unknown
12:55 PM 69.8 °F 55.4 °F 60% 30.18 in 6.2 mi NE 9.2 mph - N/A   Unknown
1:25 PM 71.6 °F 55.4 °F 57% 30.18 in 6.2 mi North 11.5 mph - N/A   Unknown
1:55 PM 71.6 °F 55.4 °F 57% 30.18 in 6.2 mi North 12.7 mph - N/A   Unknown
2:00 PM 71 °F 57 °F 51% 30.20 in 11 mi North 11.2 mph - -   Partly Cloudy
2:25 PM 71.6 °F 57.2 °F 60% 30.18 in 6.2 mi North 11.5 mph - N/A   Unknown
2:55 PM 71.6 °F 55.4 °F 57% 30.18 in 6.2 mi NNE 10.4 mph - N/A   Unknown
3:25 PM 69.8 °F 55.4 °F 60% 30.18 in 6.2 mi NNE 11.5 mph - N/A   Unknown
3:55 PM 69.8 °F 55.4 °F 60% 30.18 in 6.2 mi North 12.7 mph - N/A   Unknown
4:25 PM 69.8 °F 55.4 °F 60% 30.18 in 6.2 mi North 13.8 mph - N/A   Unknown
4:55 PM 68.0 °F 55.4 °F 64% 30.18 in 6.2 mi North 12.7 mph - N/A   Unknown
5:00 PM 68 °F 54 °F 52% 30.19 in 12 mi North 13.4 mph - -  
5:25 PM 68.0 °F 55.4 °F 64% 30.18 in 6.2 mi North 13.8 mph - N/A   Unknown
5:55 PM 66.2 °F 53.6 °F 64% 30.18 in 6.2 mi North 13.8 mph - N/A   Unknown
6:25 PM 64.4 °F 53.6 °F 68% 30.18 in 6.2 mi North 12.7 mph - N/A   Unknown
6:55 PM 62.6 °F 51.8 °F 68% 30.18 in 6.2 mi North 15.0 mph - N/A   Unknown
7:25 PM 60.8 °F 51.8 °F 72% 30.18 in 6.2 mi NNE 13.8 mph - N/A   Unknown
7:55 PM 59.0 °F 50.0 °F 72% 30.18 in 6.2 mi North 15.0 mph - N/A   Unknown
8:00 PM 58 °F 51 °F 69% 30.19 in 14 mi North 13.4 mph - -   Partly Cloudy
8:25 PM 57.2 °F 50.0 °F 77% 30.18 in 6.2 mi NNE 11.5 mph - N/A   Unknown
8:55 PM 55.4 °F 50.0 °F 82% 30.18 in 6.2 mi North 15.0 mph - N/A   Unknown
9:25 PM 53.6 °F 48.2 °F 82% 30.18 in 6.2 mi North 13.8 mph - N/A   Unknown
9:55 PM 53.6 °F 50.0 °F 88% 30.18 in 6.2 mi North 11.5 mph - N/A   Unknown
10:25 PM 53.6 °F 50.0 °F 88% 30.18 in 6.2 mi North 10.4 mph - N/A   Partly Cloudy
10:55 PM 51.8 °F 50.0 °F 94% 30.18 in 6.2 mi NNE 9.2 mph - N/A   Partly Cloudy
11:00 PM 52 °F 49 °F 86% 30.21 in 8 mi NNE 8.9 mph - -   Scattered Clouds
11:25 PM 51.8 °F 48.2 °F 88% 30.18 in 6.2 mi North 8.1 mph - N/A   Partly Cloudy
11:55 PM 51.8 °F 48.2 °F 88% 30.18 in 6.2 mi North 6.9 mph - N/A   Unknown